N0TOA-13 Weather Reports


time (UTC)temp
C
wind
direction
speed
KPH
gust
KPH
rain 1hr
cm
rain 24hr
cm
rain mn
cm
humidity
%
barometer
mb
20260507131005 4 137 1.6 11.3 0.00 0.00 0.00 44 993.0
20260507130005 4 137 1.6 8.0 0.00 0.00 0.00 44 992.9
20260507125004 3 137 1.6 9.7 0.00 0.00 0.00 44 992.8
20260507124004 2 184 3.2 9.7 0.00 0.00 0.00 58 1018.7
20260507122005 2 186 3.2 11.3 0.00 0.00 0.00 59 1018.5
20260507121005 2 137 1.6 9.7 0.00 0.00 0.00 42 992.6
20260507121003 2 150 1.6 9.7 0.00 0.00 0.00 59 1018.5
20260507120005 2 137 1.6 8.0 0.00 0.00 0.00 42 992.6
20260507115004 2 193 3.2 9.7 0.00 0.00 0.00 58 1018.5
20260507114004 2 137 1.6 12.9 0.00 0.00 0.00 42 992.6
20260507113005 2 137 1.6 12.9 0.00 0.00 0.00 42 992.4
20260507112004 2 217 3.2 9.7 0.00 0.00 0.00 58 1018.3
20260507111004 2 137 1.6 9.7 0.00 0.00 0.00 42 992.4
20260507110004 2 137 1.6 8.0 0.00 0.00 0.00 42 992.5
20260507105004 2 137 1.6 9.7 0.00 0.00 0.00 42 992.5
20260507104004 2 137 1.6 9.7 0.00 0.00 0.00 42 992.6
20260507103005 2 137 1.6 4.8 0.00 0.00 0.00 44 992.6
20260507102004 2 184 3.2 9.7 0.00 0.00 0.00 61 1018.4
20260507101005 2 137 1.6 9.7 0.00 0.00 0.00 44 992.6
20260507100005 2 137 1.6 9.7 0.00 0.00 0.00 44 992.7
20260507095004 2 209 1.6 4.8 0.00 0.00 0.00 63 1018.7
20260507094005 2 137 1.6 8.0 0.00 0.00 0.00 44 992.9
20260507093004 2 257 3.2 9.7 0.00 0.00 0.00 64 1018.8
20260507091005 2 137 1.6 8.0 0.00 0.00 0.00 50 992.8
20260507090004 1 229 4.8 11.3 0.00 0.00 0.00 67 1018.7
20260507085004 1 167 3.2 8.0 0.00 0.00 0.00 69 1018.7
20260507084005 1 137 1.6 1.6 0.00 0.00 0.00 50 992.9
20260507083005 1 137 1.6 8.0 0.00 0.00 0.00 61 992.9
20260507082005 1 137 1.6 1.6 0.00 0.00 0.00 61 993.1
20260507081005 1 137 1.6 1.6 0.00 0.00 0.00 61 993.1
20260507080005 1 137 1.6 1.6 0.00 0.00 0.00 61 993.3
20260507075004 1 137 1.6 1.6 0.00 0.00 0.00 61 993.5
20260507074004 1 137 1.6 1.6 0.00 0.00 0.00 61 993.5
20260507073004 1 162 3.2 8.0 0.00 0.00 0.00 81 1019.5
20260507072004 1 137 1.6 1.6 0.00 0.00 0.00 72 993.7
20260507071005 1 137 1.6 1.6 0.00 0.00 0.00 72 993.7
20260507070009 0 137 1.6 1.6 0.00 0.00 0.00 72 993.8
20260507065004 1 169 3.2 9.7 0.00 0.00 0.00 84 1019.6
20260507064004 1 187 3.2 9.7 0.00 0.00 0.00 84 1019.6
20260507063004 1 137 1.6 1.6 0.00 0.00 0.00 77 993.8
20260507062004 1 166 3.2 9.7 0.00 0.00 0.00 84 1019.7
20260507061004 1 179 1.6 8.0 0.00 0.00 0.00 84 1019.7
20260507060005 1 137 1.6 1.6 0.00 0.00 0.00 77 993.8
20260507055004 1 137 1.6 1.6 0.00 0.00 0.00 77 993.8
20260507054005 1 137 1.6 1.6 0.00 0.00 0.00 77 993.9
20260507054003 1 273 0.0 8.0 0.00 0.00 0.00 86 1019.8
20260507053005 1 137 1.6 1.6 0.00 0.00 0.00 78 993.9
20260507052004 1 97 1.6 8.0 0.00 0.00 0.00 84 1019.8
20260507051004 1 265 1.6 9.7 0.00 0.00 0.00 84 1019.8
20260507050005 1 137 1.6 1.6 0.00 0.00 0.00 78 994.0
20260507044004 1 137 1.6 1.6 0.00 0.00 0.00 78 994.0
20260507043004 1 137 1.6 1.6 0.00 0.00 0.00 78 994.0
20260507042005 1 137 1.6 1.6 0.00 0.00 0.00 78 994.0
20260507042003 1 160 3.2 9.7 0.00 0.00 0.00 83 1019.9
20260507041004 1 137 1.6 1.6 0.00 0.00 0.00 78 994.0
20260507040005 1 137 1.6 1.6 0.00 0.00 0.00 78 993.9
20260507035004 1 137 1.6 1.6 0.00 0.00 0.00 78 993.9
20260507034003 1 175 3.2 8.0 0.00 0.00 0.00 84 1019.8
20260507033004 1 220 3.2 8.0 0.00 0.00 0.00 84 1019.7
20260507032005 1 137 1.6 1.6 0.00 0.00 0.00 69 993.8
20260507031005 1 137 1.6 1.6 0.00 0.00 0.00 69 993.8
20260507030004 1 208 3.2 4.8 0.00 0.00 0.00 82 1019.6
20260507025004 1 177 1.6 4.8 0.00 0.00 0.00 82 1019.6
20260507023004 1 137 1.6 1.6 0.00 0.00 0.00 66 993.6
20260507022004 2 205 1.6 4.8 0.00 0.00 0.00 80 1019.5
20260507021005 2 137 1.6 1.6 0.00 0.00 0.00 66 993.5
20260507020004 2 181 1.6 4.8 0.00 0.00 0.00 78 1019.4
20260507015004 2 172 1.6 8.0 0.00 0.00 0.00 77 1019.5
20260507014005 2 137 1.6 1.6 0.00 0.00 0.00 66 993.6
20260507014003 2 191 1.6 9.7 0.00 0.00 0.00 76 1019.5
20260507013005 3 137 1.6 1.6 0.00 0.00 0.00 66 993.7
20260507012004 3 172 3.2 8.0 0.00 0.00 0.00 73 1019.6
20260507010004 3 137 1.6 1.6 0.00 0.00 0.00 66 993.7
20260507005004 4 137 1.6 1.6 0.00 0.00 0.00 66 993.8
20260507004004 4 250 1.6 4.8 0.00 0.00 0.00 67 1019.7
20260507003004 4 339 1.6 4.8 0.00 0.00 0.00 66 1019.7
20260507002004 4 137 1.6 1.6 0.00 0.00 0.00 69 993.9
20260507001004 4 137 1.6 1.6 0.00 0.00 0.00 69 993.9
20260507000005 4 137 1.6 1.6 0.00 0.00 0.00 69 993.9
20260506235005 4 137 1.6 1.6 0.00 0.00 0.00 69 993.9
20260506234004 3 104 1.6 9.7 0.00 0.00 0.00 71 1019.9
20260506233004 3 71 1.6 4.8 0.00 0.00 0.00 69 1019.8
20260506232005 3 137 1.6 1.6 0.00 0.00 0.00 69 994.0
20260506231004 2 46 1.6 8.0 0.00 0.00 0.00 74 1020.0
20260506230004 2 137 1.6 1.6 0.00 0.00 0.00 69 994.1
20260506225004 2 238 1.6 8.0 0.00 0.00 0.00 75 1020.0
20260506224004 3 137 1.6 1.6 0.00 0.00 0.00 69 994.2
20260506223004 2 137 1.6 1.6 0.00 0.00 0.00 77 994.4
20260506222004 1 279 1.6 4.8 0.00 0.00 0.00 74 1020.4
20260506221005 1 137 1.6 1.6 0.00 0.00 0.00 77 994.6
20260506220005 1 137 1.6 1.6 0.00 0.00 0.00 77 994.6
20260506215005 1 137 1.6 1.6 0.00 0.00 0.00 77 994.7
20260506215003 1 231 1.6 4.8 0.00 0.00 0.00 80 1020.6
20260506214004 1 137 1.6 1.6 0.00 0.00 0.00 77 994.7
20260506213004 2 330 1.6 4.8 0.00 0.00 0.00 77 1020.7
20260506212004 2 341 1.6 4.8 0.00 0.00 0.00 80 1020.8
20260506211004 2 48 0.0 8.0 0.00 0.00 0.00 77 1020.8
20260506210005 2 137 1.6 1.6 0.00 0.00 0.00 85 995.0
20260506205004 2 311 1.6 3.2 0.00 0.00 0.00 76 1020.9
20260506204004 2 137 1.6 1.6 0.00 0.00 0.00 85 995.1
20260506203004 2 344 3.2 4.8 0.00 0.05 0.00 78 1021.0
20260506202005 2 137 1.6 1.6 0.00 0.00 0.00 85 995.2
20260506201004 1 137 1.6 1.6 0.00 0.00 0.00 85 995.3
20260506200005 1 137 1.6 1.6 0.00 0.00 0.00 88 995.4
20260506195004 1 330 3.2 4.8 0.00 0.05 0.00 87 1021.4
20260506194005 1 137 1.6 1.6 0.00 0.00 0.00 88 995.4
20260506193004 1 137 1.6 1.6 0.00 0.00 0.00 92 995.5
20260506192004 1 357 1.6 4.8 0.00 0.05 0.00 90 1021.5
20260506191004 1 137 1.6 1.6 0.00 0.00 0.00 92 995.6
20260506190005 1 137 1.6 1.6 0.00 0.00 0.00 92 995.6
20260506185004 0 29 1.6 3.2 0.00 0.05 0.00 89 1021.5
20260506184004 0 137 1.6 1.6 0.00 0.00 0.00 92 995.7
20260506183005 0 358 1.6 3.2 0.00 0.05 0.00 92 1021.7
20260506182004 0 137 1.6 1.6 0.00 0.00 0.00 96 995.8
20260506181004 0 137 1.6 1.6 0.00 0.00 0.00 96 995.8
20260506180005 0 137 1.6 1.6 0.00 0.00 0.00 96 995.7
20260506175004 0 356 1.6 4.8 0.00 0.05 0.00 95 1021.6
20260506174004 0 359 1.6 8.0 0.00 0.05 0.00 94 1021.5
20260506173005 0 137 1.6 1.6 0.00 0.00 0.00 95 995.6
20260506172004 0 6 1.6 4.8 0.00 0.05 0.00 94 1021.4
20260506171004 0 338 1.6 8.0 0.00 0.05 0.00 93 1021.2
20260506170004 0 9 1.6 4.8 0.00 0.05 0.00 94 1021.1
20260506165005 0 137 1.6 1.6 0.00 0.00 0.00 95 994.9
20260506164004 0 344 0.0 1.6 0.00 0.05 0.00 94 1020.8
20260506163005 0 137 1.6 1.6 0.00 0.00 0.00 100 994.9
20260506162005 0 137 1.6 1.6 0.00 0.00 0.00 100 994.9
20260506162003 0 357 0.0 3.2 0.00 0.05 0.00 95 1020.9
20260506161004 0 137 1.6 1.6 0.00 0.00 0.00 100 994.7
20260506160005 0 355 0.0 3.2 0.00 0.05 0.00 96 1020.6
20260506155004 0 341 0.0 1.6 0.00 0.05 0.00 96 1020.7
20260506154004 0 137 1.6 1.6 0.00 0.00 0.00 100 994.8
20260506153004 0 350 1.6 3.2 0.00 0.05 0.00 96 1020.6
20260506152004 0 345 0.0 1.6 0.00 0.05 0.00 96 1020.5
20260506150005 0 137 1.6 1.6 0.00 0.00 0.00 100 994.4
20260506145004 0 12 0.0 3.2 0.00 0.05 0.00 97 1020.3
20260506144004 0 356 1.6 1.6 0.00 0.05 0.00 98 1020.2
20260506143004 0 115 1.6 1.6 0.00 0.05 0.00 98 1020.1
20260506142004 0 79 0.0 3.2 0.00 0.05 0.00 98 1020.2
20260506141004 0 137 1.6 1.6 0.00 0.00 0.00 95 994.2
20260506140005 0 137 1.6 1.6 0.00 0.00 0.00 95 994.3
20260506135005 0 137 1.6 1.6 0.00 0.00 0.00 95 994.3
20260506135003 0 340 0.0 1.6 0.00 0.05 0.00 99 1020.2
20260506134005 0 137 1.6 1.6 0.00 0.00 0.00 95 994.0
20260506133005 0 137 1.6 1.6 0.00 0.00 0.00 92 994.0
20260506132005 0 347 0.0 1.6 0.00 0.25 0.00 99 1019.7